W4SNA-3 Weather Reports


Display with metric or nautical units.
time (UTC)temp
F
wind
direction
speed
MPH
gust
MPH
rain 1hr
in
rain 24hr
in
rain mn
in
humidity
%
barometer
mb
20260510043511 54 0 0.0 2.0 0.00 0.00 0.00 78 1011.9
20260510042954 54 0 0.0 2.0 0.00 0.00 0.00 78 1012.0
20260510042442 54 0 0.0 3.0 0.00 0.00 0.00 77 1011.8
20260510041941 54 0 0.0 3.0 0.00 0.00 0.00 76 1012.0
20260510041440 55 87 1.0 3.0 0.00 0.00 0.00 76 1012.0
20260510040940 55 0 0.0 2.0 0.00 0.00 0.00 75 1012.0
20260510040508 55 0 0.0 2.0 0.00 0.00 0.00 75 1012.0
20260510035723 55 0 0.0 2.0 0.00 0.00 0.00 74 1012.1
20260510035204 56 0 0.0 2.0 0.00 0.00 0.00 74 1012.1
20260510034704 56 0 0.0 1.0 0.00 0.00 0.00 74 1012.1
20260510034247 56 0 0.0 3.0 0.00 0.00 0.00 73 1012.1
20260510034204 56 0 0.0 3.0 0.00 0.00 0.00 73 1012.1
20260510033710 56 0 0.0 3.0 0.00 0.00 0.00 73 1012.1
20260510033204 56 0 0.0 2.0 0.00 0.00 0.00 73 1012.1
20260510032722 56 0 0.0 3.0 0.00 0.00 0.00 73 1012.1
20260510032204 56 0 0.0 3.0 0.00 0.00 0.00 73 1012.0
20260510031704 55 0 0.0 1.0 0.00 0.00 0.00 74 1012.0
20260510031216 55 0 0.0 0.0 0.00 0.00 0.00 74 1012.1
20260510030722 55 0 0.0 0.0 0.00 0.00 0.00 74 1012.0
20260510030204 55 0 0.0 0.0 0.00 0.00 0.00 74 1012.0
20260510025704 55 0 0.0 0.0 0.00 0.00 0.00 74 1011.9
20260510025219 55 0 0.0 0.0 0.00 0.00 0.00 74 1011.7
20260510024704 55 0 0.0 0.0 0.00 0.00 0.00 74 1011.8
20260510024204 55 0 0.0 0.0 0.00 0.00 0.00 74 1011.8
20260510023704 55 0 0.0 0.0 0.00 0.00 0.00 74 1011.7
20260510023204 55 0 0.0 0.0 0.00 0.00 0.00 73 1011.6
20260510022721 55 0 0.0 0.0 0.00 0.00 0.00 73 1011.5
20260510021742 55 0 0.0 0.0 0.00 0.00 0.00 73 1011.7
20260510021241 56 0 0.0 0.0 0.00 0.00 0.00 73 1011.7
20260510020741 56 0 0.0 0.0 0.00 0.00 0.00 72 1011.7
20260510020248 56 0 0.0 0.0 0.00 0.00 0.00 72 1011.6
20260510015742 56 0 0.0 0.0 0.00 0.00 0.00 71 1011.4
20260510015251 56 0 0.0 0.0 0.00 0.00 0.00 70 1011.4
20260510014741 56 0 0.0 0.0 0.00 0.00 0.00 70 1011.4
20260510014243 56 0 0.0 0.0 0.00 0.00 0.00 70 1011.4
20260510013742 56 0 0.0 0.0 0.00 0.00 0.00 70 1011.2
20260510013241 56 0 0.0 0.0 0.00 0.00 0.00 70 1010.9
20260510012741 56 0 0.0 1.0 0.00 0.00 0.00 70 1010.9
20260510012253 57 0 0.0 1.0 0.00 0.00 0.00 70 1010.8
20260510011742 57 0 0.0 0.0 0.00 0.00 0.00 70 1010.7
20260510011243 57 0 0.0 0.0 0.00 0.00 0.00 69 1010.7
20260510010741 57 0 0.0 1.0 0.00 0.00 0.00 68 1010.5
20260510010244 57 0 0.0 1.0 0.00 0.00 0.00 68 1010.5
20260510005741 58 0 0.0 0.0 0.00 0.00 0.00 67 1010.4
20260510005256 58 0 0.0 0.0 0.00 0.00 0.00 67 1010.1
20260510004741 58 0 0.0 0.0 0.00 0.00 0.00 67 1010.0
20260510004243 58 0 0.0 1.0 0.00 0.00 0.00 67 1010.0
20260510003741 59 0 0.0 2.0 0.00 0.00 0.00 67 1009.9
20260510003241 59 0 0.0 2.0 0.00 0.00 0.00 66 1009.8
20260510002741 59 0 0.0 1.0 0.00 0.00 0.00 67 1009.6
20260510002248 60 0 0.0 2.0 0.00 0.00 0.00 67 1009.7
20260510001743 60 0 0.0 2.0 0.00 0.00 0.00 66 1009.7
20260510001241 60 0 0.0 3.0 0.00 0.00 0.00 66 1009.7
20260510000741 61 292 1.0 4.0 0.00 0.00 0.00 65 1009.7
20260510000244 61 292 1.0 4.0 0.00 0.00 0.00 64 1009.6
20260509235741 61 292 1.0 3.0 0.00 0.00 0.00 63 1009.7
20260509235258 61 292 1.0 3.0 0.00 0.00 0.00 63 1009.7
20260509234743 62 291 1.0 3.0 0.00 0.00 0.00 62 1009.7
20260509234243 62 292 1.0 4.0 0.00 0.00 0.00 62 1009.6
20260509233741 62 0 0.0 4.0 0.00 0.00 0.00 62 1009.8
20260509233241 62 293 1.0 3.0 0.00 0.00 0.00 60 1009.6
20260509232748 62 0 0.0 3.0 0.00 0.00 0.00 60 1009.5
20260509232243 63 0 0.0 4.0 0.00 0.00 0.00 58 1009.6
20260509231741 63 294 1.0 4.0 0.00 0.00 0.00 59 1009.3
20260509231242 63 277 1.0 5.0 0.00 0.00 0.00 59 1009.3
20260509230741 63 264 1.0 5.0 0.00 0.00 0.00 58 1009.2
20260509225840 64 317 1.0 3.0 0.00 0.00 0.00 58 1009.2
20260509225341 64 316 1.0 3.0 0.00 0.00 0.00 58 1009.1
20260509224841 64 316 1.0 4.0 0.00 0.00 0.00 58 1009.0
20260509224340 64 320 2.0 5.0 0.00 0.00 0.00 56 1009.0
20260509223841 65 292 2.0 5.0 0.00 0.00 0.00 55 1009.0
20260509223344 65 0 0.0 3.0 0.00 0.00 0.00 58 1009.0
20260509222841 65 0 0.0 8.0 0.00 0.00 0.00 58 1009.2
20260509222341 65 276 1.0 8.0 0.00 0.00 0.00 56 1009.0
20260509221845 65 351 1.0 8.0 0.00 0.00 0.00 56 1009.0
20260509221341 66 34 1.0 4.0 0.00 0.00 0.00 57 1009.0
20260509220840 66 334 1.0 4.0 0.00 0.00 0.00 57 1009.1
20260509220343 66 0 0.0 5.0 0.00 0.00 0.00 60 1009.2
20260509215840 66 0 0.0 5.0 0.00 0.00 0.00 60 1009.2
20260509215340 66 0 0.0 2.0 0.00 0.00 0.00 64 1009.1
20260509214841 66 0 0.0 2.0 0.00 0.00 0.00 65 1009.0
20260509214340 66 0 0.0 1.0 0.00 0.00 0.00 66 1009.0
20260509213841 66 0 0.0 0.0 0.00 0.00 0.00 66 1008.9
20260509213340 66 0 0.0 0.0 0.00 0.00 0.00 66 1008.9
20260509212840 66 0 0.0 0.0 0.00 0.00 0.00 67 1009.0
20260509212342 66 0 0.0 0.0 0.00 0.00 0.00 65 1008.7
20260509211841 67 0 0.0 0.0 0.00 0.00 0.00 64 1008.8
20260509211340 67 0 0.0 0.0 0.00 0.00 0.00 63 1008.7
20260509210840 67 0 0.0 0.0 0.00 0.00 0.00 63 1008.7
20260509210243 68 0 0.0 0.0 0.00 0.00 0.00 62 1008.7
20260509205740 68 0 0.0 0.0 0.00 0.00 0.00 61 1008.5
20260509205240 68 0 0.0 1.0 0.00 0.00 0.00 63 1008.6
20260509204740 68 0 0.0 2.0 0.00 0.00 0.00 61 1008.5
20260509204249 68 0 0.0 2.0 0.00 0.00 0.00 60 1008.6
20260509203744 68 0 0.0 2.0 0.00 0.00 0.00 62 1008.5
20260509203240 68 0 0.0 3.0 0.00 0.00 0.00 63 1008.5
20260509202747 67 0 0.0 3.0 0.00 0.00 0.00 65 1008.5
20260509202251 67 0 0.0 3.0 0.00 0.00 0.00 65 1008.7
20260509201341 66 0 0.0 2.0 0.00 0.00 0.00 66 1008.6
20260509200853 66 0 0.0 1.0 0.00 0.00 0.00 67 1008.6
20260509200344 66 0 0.0 2.0 0.00 0.00 0.00 66 1008.7
20260509195841 66 0 0.0 2.0 0.00 0.00 0.00 65 1008.7
20260509195342 66 0 0.0 3.0 0.00 0.00 0.00 64 1008.9
20260509194842 67 0 0.0 3.0 0.00 0.00 0.00 62 1008.8
20260509194341 67 0 0.0 3.0 0.00 0.00 0.00 62 1008.9
20260509193842 67 0 0.0 2.0 0.00 0.00 0.00 63 1008.9
20260509193341 68 0 0.0 2.0 0.00 0.00 0.00 61 1008.9
20260509192842 68 0 0.0 4.0 0.00 0.00 0.00 62 1008.9
20260509192342 69 0 0.0 4.0 0.00 0.00 0.00 61 1008.8
20260509191841 69 0 0.0 8.0 0.00 0.00 0.00 61 1008.9
20260509191341 69 249 1.0 8.0 0.00 0.00 0.00 62 1008.8
20260509190851 69 0 0.0 3.0 0.00 0.00 0.00 63 1008.7
20260509190341 68 0 0.0 3.0 0.00 0.00 0.00 61 1008.8
20260509185846 68 0 0.0 3.0 0.00 0.00 0.00 62 1008.8
20260509185341 67 0 0.0 2.0 0.00 0.00 0.00 67 1008.8
20260509184841 66 0 0.0 2.0 0.00 0.00 0.00 67 1008.9
20260509184402 67 0 0.0 2.0 0.00 0.00 0.00 65 1008.9
20260509183842 67 0 0.0 3.0 0.00 0.00 0.00 63 1008.9
20260509183341 68 0 0.0 3.0 0.00 0.00 0.00 63 1009.0
20260509182841 67 196 1.0 3.0 0.00 0.00 0.00 64 1009.1
20260509182007 66 0 0.0 2.0 0.00 0.00 0.00 69 1009.4
20260509181501 66 0 0.0 4.0 0.00 0.00 0.00 65 1009.5
20260509181001 67 0 0.0 4.0 0.00 0.00 0.00 63 1009.5
20260509180501 68 0 0.0 4.0 0.00 0.00 0.00 63 1009.4
20260509175739 69 0 0.0 4.0 0.00 0.00 0.00 62 1009.4
20260509175220 69 0 0.0 2.0 0.00 0.00 0.00 65 1009.3
20260509174720 69 0 0.0 5.0 0.00 0.00 0.00 65 1009.5
20260509174219 68 0 0.0 5.0 0.00 0.00 0.00 64 1009.5
20260509173718 68 0 0.0 3.0 0.00 0.00 0.00 64 1009.5
20260509173220 68 0 0.0 3.0 0.00 0.00 0.00 65 1009.6
20260509172719 68 0 0.0 4.0 0.00 0.00 0.00 66 1009.8
20260509172218 67 200 1.0 4.0 0.00 0.00 0.00 68 1009.8
20260509171718 67 0 0.0 2.0 0.00 0.00 0.00 66 1009.7
20260509171218 67 0 0.0 4.0 0.00 0.00 0.00 67 1010.0
20260509170718 67 0 0.0 4.0 0.00 0.00 0.00 68 1010.0
20260509165743 65 0 0.0 3.0 0.00 0.00 0.00 71 1009.9
20260509165243 65 0 0.0 3.0 0.00 0.00 0.00 69 1010.1
20260509164740 64 0 0.0 3.0 0.00 0.00 0.00 70 1010.2
20260509164243 64 0 0.0 4.0 0.00 0.00 0.00 68 1010.5
20260509163744 64 272 1.0 4.0 0.00 0.00 0.00 70 1010.5
20260509162838 65 0 0.0 2.0 0.00 0.00 0.00 69 1010.3
20260509162337 65 0 0.0 3.0 0.00 0.00 0.00 68 1010.4
20260509161838 65 0 0.0 4.0 0.00 0.00 0.00 69 1010.3
20260509161338 66 0 0.0 4.0 0.00 0.00 0.00 65 1010.4
20260509160837 66 0 0.0 3.0 0.00 0.00 0.00 69 1010.5
20260509160338 66 0 0.0 3.0 0.00 0.00 0.00 66 1010.4
20260509155844 65 0 0.0 3.0 0.00 0.00 0.00 70 1010.5
20260509155338 65 0 0.0 3.0 0.00 0.00 0.00 72 1010.4
20260509154837 64 0 0.0 3.0 0.00 0.00 0.00 67 1010.3
20260509154340 64 0 0.0 5.0 0.00 0.00 0.00 69 1010.4
20260509153837 64 0 0.0 5.0 0.00 0.00 0.00 71 1010.5
20260509153307 63 0 0.0 4.0 0.00 0.00 0.00 70 1010.4
20260509152812 63 0 0.0 4.0 0.00 0.00 0.00 70 1010.3
20260509152308 63 0 0.0 3.0 0.00 0.00 0.00 71 1010.2
20260509151810 63 0 0.0 4.0 0.00 0.00 0.00 68 1010.3
20260509151309 64 0 0.0 5.0 0.00 0.00 0.00 70 1010.4
20260509150807 63 250 1.0 5.0 0.00 0.00 0.00 68 1010.3
20260509150318 63 0 0.0 2.0 0.00 0.00 0.00 71 1010.4
20260509145807 63 0 0.0 3.0 0.00 0.00 0.00 69 1010.4
20260509145309 63 0 0.0 4.0 0.00 0.00 0.00 68 1010.4
20260509144808 64 0 0.0 6.0 0.00 0.00 0.00 67 1010.3
20260509144309 64 0 0.0 6.0 0.00 0.00 0.00 68 1010.2
20260509143807 64 0 0.0 3.0 0.00 0.00 0.00 68 1010.3
20260509143018 63 226 1.0 4.0 0.00 0.00 0.00 70 1010.3
20260509142519 62 0 0.0 3.0 0.00 0.00 0.00 70 1010.2
20260509142018 61 0 0.0 2.0 0.00 0.00 0.00 72 1010.1
20260509141518 60 0 0.0 3.0 0.00 0.00 0.00 76 1010.0
20260509141018 59 0 0.0 3.0 0.00 0.00 0.00 75 1010.1
20260509140518 58 0 0.0 1.0 0.00 0.00 0.00 76 1010.3
20260509140018 58 0 0.0 1.0 0.00 0.00 0.00 75 1010.4
20260509135518 57 0 0.0 0.0 0.00 0.00 0.00 80 1010.3
20260509135018 56 0 0.0 2.0 0.00 0.00 0.00 78 1010.4
20260509134518 56 0 0.0 2.0 0.00 0.00 0.00 80 1010.2
20260509134018 55 0 0.0 1.0 0.00 0.00 0.00 82 1010.3
20260509133518 54 0 0.0 1.0 0.00 0.00 0.00 80 1010.8
20260509133018 55 0 0.0 0.0 0.00 0.00 0.00 79 1010.8
20260509132518 55 0 0.0 1.0 0.00 0.00 0.00 78 1010.7
20260509132022 55 0 0.0 2.0 0.00 0.00 0.00 77 1010.7
20260509131521 56 0 0.0 3.0 0.00 0.00 0.00 75 1010.6
20260509131018 57 0 0.0 3.0 0.00 0.00 0.00 76 1010.8
20260509130043 56 0 0.0 2.0 0.00 0.00 0.00 79 1010.9
20260509125544 55 0 0.0 2.0 0.00 0.00 0.00 78 1011.3
20260509125053 55 0 0.0 1.0 0.00 0.00 0.00 79 1011.3
20260509124543 54 0 0.0 0.0 0.00 0.00 0.00 80 1011.5
20260509124045 54 0 0.0 2.0 0.00 0.00 0.00 82 1011.5
20260509123546 54 0 0.0 2.0 0.00 0.00 0.00 81 1011.5
20260509123043 53 0 0.0 1.0 0.00 0.00 0.00 83 1011.5
20260509122545 52 0 0.0 1.0 0.00 0.00 0.00 85 1011.6
20260509122046 52 0 0.0 1.0 0.00 0.00 0.00 86 1011.5
20260509121545 51 0 0.0 2.0 0.00 0.00 0.00 87 1011.5
20260509121048 51 0 0.0 3.0 0.00 0.00 0.00 87 1011.5
20260509120543 50 0 0.0 3.0 0.00 0.00 0.00 87 1011.6
20260509120043 50 0 0.0 0.0 0.00 0.00 0.00 87 1011.4
20260509115543 50 0 0.0 0.0 0.00 0.00 0.00 87 1011.4
20260509115043 50 0 0.0 0.0 0.00 0.00 0.00 87 1011.5
20260509114238 49 0 0.0 0.0 0.00 0.00 0.00 86 1011.3
20260509113737 49 0 0.0 0.0 0.00 0.00 0.00 87 1011.1
20260509113237 49 0 0.0 0.0 0.00 0.00 0.00 88 1011.1
20260509112737 49 0 0.0 0.0 0.00 0.00 0.00 88 1011.1
20260509112237 49 0 0.0 0.0 0.00 0.00 0.00 89 1011.1
20260509111737 48 0 0.0 0.0 0.00 0.00 0.00 89 1011.1
20260509111238 48 0 0.0 0.0 0.00 0.00 0.00 89 1011.0
20260509110656 48 0 0.0 0.0 0.00 0.00 0.00 89 1011.0
20260509110157 48 0 0.0 1.0 0.00 0.00 0.00 89 1011.1
20260509105656 48 0 0.0 1.0 0.00 0.00 0.00 89 1011.2
20260509105201 48 0 0.0 0.0 0.00 0.00 0.00 89 1011.1
20260509104658 48 0 0.0 2.0 0.00 0.00 0.00 89 1011.0
20260509104157 47 0 0.0 2.0 0.00 0.00 0.00 89 1010.9
20260509103656 47 0 0.0 1.0 0.00 0.00 0.00 89 1010.9
20260509103157 47 0 0.0 1.0 0.00 0.00 0.00 89 1010.8
20260509102658 47 0 0.0 1.0 0.00 0.00 0.00 89 1010.6
20260509102202 47 0 0.0 1.0 0.00 0.00 0.00 89 1010.4
20260509101656 47 0 0.0 1.0 0.00 0.00 0.00 88 1010.3
20260509101202 47 0 0.0 1.0 0.00 0.00 0.00 88 1010.3
20260509100659 48 0 0.0 2.0 0.00 0.00 0.00 88 1010.4
20260509100201 48 0 0.0 2.0 0.00 0.00 0.00 88 1010.2
20260509095656 48 0 0.0 2.0 0.00 0.00 0.00 88 1010.2
20260509095156 48 0 0.0 2.0 0.00 0.00 0.00 88 1010.2
20260509094657 48 0 0.0 1.0 0.00 0.00 0.00 88 1010.4
20260509094212 48 0 0.0 4.0 0.00 0.00 0.00 88 1009.6
20260509093656 48 0 0.0 4.0 0.00 0.00 0.00 88 1009.6
20260509093158 48 0 0.0 3.0 0.00 0.00 0.00 88 1009.6
20260509092656 48 0 0.0 3.0 0.00 0.00 0.00 88 1009.7
20260509092156 48 0 0.0 3.0 0.00 0.00 0.00 88 1009.6
20260509091658 48 0 0.0 3.0 0.00 0.00 0.00 88 1009.7
20260509091156 48 0 0.0 3.0 0.00 0.00 0.00 89 1009.7
20260509090709 48 0 0.0 5.0 0.00 0.00 0.00 89 1009.8
20260509090201 47 0 0.0 5.0 0.00 0.00 0.00 89 1009.8
20260509085656 47 0 0.0 1.0 0.00 0.00 0.00 89 1009.9
20260509085156 47 0 0.0 1.0 0.00 0.00 0.00 89 1009.9
20260509084658 47 0 0.0 1.0 0.00 0.00 0.00 89 1010.0
20260509084156 47 0 0.0 1.0 0.00 0.00 0.00 88 1010.0
20260509083656 47 0 0.0 1.0 0.00 0.00 0.00 88 1010.0
20260509083202 47 0 0.0 1.0 0.00 0.00 0.00 88 1010.2
20260509082656 47 0 0.0 3.0 0.00 0.00 0.00 88 1010.2
20260509082156 47 0 0.0 3.0 0.00 0.00 0.00 88 1010.2
20260509081240 47 0 0.0 2.0 0.00 0.00 0.00 87 1010.3
20260509080450 47 0 0.0 1.0 0.00 0.00 0.00 87 1010.3
20260509075929 47 0 0.0 0.0 0.00 0.00 0.00 86 1010.3
20260509075429 47 0 0.0 0.0 0.00 0.00 0.00 86 1010.3
20260509074929 47 0 0.0 0.0 0.00 0.00 0.00 85 1010.5
20260509074427 47 0 0.0 1.0 0.00 0.00 0.00 83 1010.4
20260509073927 47 0 0.0 1.0 0.00 0.00 0.00 81 1010.5
20260509073427 47 0 0.0 0.0 0.00 0.00 0.00 81 1010.5
20260509072941 48 0 0.0 1.0 0.00 0.00 0.00 82 1010.6
20260509072427 48 0 0.0 1.0 0.00 0.00 0.00 83 1010.6
20260509071927 48 0 0.0 1.0 0.00 0.00 0.00 83 1010.6
20260509071427 48 0 0.0 0.0 0.00 0.00 0.00 82 1010.6
20260509070929 48 0 0.0 1.0 0.00 0.00 0.00 82 1010.7
20260509070512 49 0 0.0 1.0 0.00 0.00 0.00 82 1010.8
20260509065646 49 0 0.0 2.0 0.00 0.00 0.00 82 1010.8
20260509065204 49 0 0.0 3.0 0.00 0.00 0.00 82 1010.9
20260509064641 49 0 0.0 4.0 0.00 0.00 0.00 82 1010.9
20260509064141 49 0 0.0 4.0 0.00 0.00 0.00 82 1010.9
20260509063705 49 0 0.0 3.0 0.00 0.00 0.00 82 1010.9
20260509063200 49 0 0.0 3.0 0.00 0.00 0.00 82 1010.9
20260509062641 49 0 0.0 4.0 0.00 0.00 0.00 82 1011.1
20260509062141 49 0 0.0 4.0 0.00 0.00 0.00 82 1011.1
20260509061641 48 0 0.0 2.0 0.00 0.00 0.00 82 1011.3
20260509061141 48 0 0.0 2.0 0.00 0.00 0.00 82 1011.3
20260509060641 48 0 0.0 2.0 0.00 0.00 0.00 81 1011.4
20260509060141 48 0 0.0 2.0 0.00 0.00 0.00 80 1011.5
20260509055643 49 0 0.0 1.0 0.00 0.00 0.00 80 1011.6
20260509055141 49 0 0.0 1.0 0.00 0.00 0.00 79 1011.6
20260509054642 49 0 0.0 1.0 0.00 0.00 0.00 78 1011.6
20260509054141 49 0 0.0 1.0 0.00 0.00 0.00 78 1011.7
20260509053641 49 0 0.0 1.0 0.00 0.00 0.00 78 1011.7
20260509053143 49 0 0.0 1.0 0.00 0.00 0.00 77 1011.8
20260509052642 49 0 0.0 1.0 0.00 0.00 0.00 77 1012.0
20260509052141 50 0 0.0 1.0 0.00 0.00 0.00 77 1011.9
20260509051649 50 0 0.0 3.0 0.00 0.00 0.00 77 1011.9
20260509051141 50 0 0.0 3.0 0.00 0.00 0.00 77 1011.9
20260509050548 50 0 0.0 1.0 0.00 0.00 0.00 76 1011.9
20260509050048 50 0 0.0 1.0 0.00 0.00 0.00 75 1012.0
20260509045552 50 0 0.0 0.0 0.00 0.00 0.00 73 1012.0
20260509045048 50 0 0.0 1.0 0.00 0.00 0.00 73 1012.1
20260509044548 50 0 0.0 1.0 0.00 0.00 0.00 73 1012.1
20260509044049 50 0 0.0 0.0 0.00 0.00 0.00 74 1012.1